Torna al catalogo

NOAA 16 DEB

AttivoPO
NORAD 42357·DEBRIS·🇺🇸 United States

Lanciato Sep 21, 2000 da Vandenberg Space Force Base

Loading…

Prossimi Passaggi (prossime 24 ore)

TLE

AggiornatoSource: Space-Track

Epoca: Sep 11, 2026, 06:13 UTC

1 42357U 00055QZ  26254.25908388  .00041987  00000-0  39123-2 0  9992
2 42357  98.7881  52.6640 0005277 135.0158 225.1487 14.94094763550580

Traccia NOAA 16 DEB in tempo reale con AllMySat

Download on the App Store